DW6894 Weather Reports


Display with metric or nautical units.
time (UTC)temp
F
wind
direction
speed
MPH
gust
MPH
rain 1hr
in
rain 24hr
in
rain mn
in
humidity
%
barometer
mb
20190321101514 51 197 0.0 0.0 0.00 0.38 0.00 90 1017.4
20190321100009 50 197 0.0 0.0 0.00 0.38 0.00 89 1017.3
20190321094507 51 197 0.0 0.0 0.00 0.38 0.00 88 1017.3
20190321093009 51 197 0.0 0.0 0.00 0.38 0.00 88 1017.4
20190321091516 51 197 0.0 0.0 0.00 0.38 0.00 88 1017.4
20190321090004 51 197 0.0 1.0 0.00 0.38 0.00 90 1017.5
20190321084635 51 197 0.0 1.0 0.00 0.38 0.00 90 1017.4
20190321083139 51 197 0.0 1.0 0.00 0.38 0.00 90 1017.4
20190321081743 51 197 0.0 0.0 0.00 0.38 0.00 89 1017.4
20190321080322 51 197 0.0 0.0 0.00 0.38 0.00 89 1017.4
20190321074709 51 197 0.0 1.0 0.00 0.38 0.00 89 1017.4
20190321073134 51 197 0.0 0.0 0.00 0.38 0.00 88 1017.3
20190321071633 51 197 0.0 0.0 0.00 0.38 0.00 88 1017.2
20190321070332 51 196 0.0 0.0 0.00 0.38 0.00 87 1017.3
20190321064651 52 197 0.0 1.0 0.00 0.38 0.00 87 1017.4
20190321063159 52 197 0.0 1.0 0.00 0.38 0.00 86 1017.2
20190321061613 53 197 0.0 0.0 0.00 0.38 0.00 85 1017.1
20190321060122 53 197 0.0 1.0 0.00 0.38 0.00 85 1017.1
20190321054605 53 197 0.0 1.0 0.00 0.38 0.00 85 1017.1
20190321053038 54 197 0.0 1.0 0.00 0.38 0.00 86 1017.1
20190321051535 55 197 0.0 1.0 0.00 0.38 0.00 86 1017.0
20190321050025 54 197 0.0 0.0 0.00 0.38 0.00 86 1017.0
20190320154555 58 211 0.0 2.0 0.00 0.00 0.00 78 1016.0
20190320153041 58 201 0.0 2.0 0.00 0.00 0.00 79 1015.8
20190320151553 57 204 0.0 1.0 0.00 0.00 0.00 79 1015.4
20190320150107 57 197 0.0 1.0 0.00 0.00 0.00 79 1015.4
20190320144554 57 197 0.0 2.0 0.00 0.00 0.00 80 1015.2
20190320143023 57 197 0.0 2.0 0.00 0.00 0.00 80 1015.2
20190320141519 57 193 0.0 3.0 0.00 0.00 0.00 80 1015.1
20190320140019 57 203 1.0 3.0 0.00 0.00 0.00 79 1014.9
20190320134536 57 200 0.0 2.0 0.00 0.00 0.00 79 1015.0
20190320133041 57 191 0.0 1.0 0.00 0.00 0.00 79 1015.0
20190320131558 57 203 0.0 1.0 0.00 0.00 0.00 79 1014.7
20190320130051 57 195 0.0 2.0 0.00 0.00 0.00 79 1014.5
20190320123107 57 211 0.0 1.0 0.00 0.00 0.00 80 1014.6
20190320121646 57 211 0.0 2.0 0.00 0.00 0.00 79 1014.6
20190320120123 57 202 0.0 3.0 0.00 0.00 0.00 79 1014.6
20190320114641 57 191 1.0 3.0 0.00 0.00 0.00 78 1014.4
20190320113214 57 173 0.0 1.0 0.00 0.00 0.00 78 1014.2
20190320111611 57 184 0.0 3.0 0.00 0.00 0.00 78 1014.3
20190320110059 57 191 0.0 3.0 0.00 0.00 0.00 78 1014.4
20190320104711 57 194 1.0 4.0 0.00 0.00 0.00 78 1014.5
20190320103114 57 184 0.0 3.0 0.00 0.00 0.00 79 1014.7